Location: Ward Pound Ridge Reservation
(41.2500°N, 73.6000°W)
Time: 12:48:10
(UTC-04:00)

N. Korean satellite - Pass Details

Date: 10 October 2017
Orbit: 459 x 517 km, 97.2° (Epoch: 17 October)

Event Time Altitude Azimuth Distance (km) Brightness Sun altitude
Rises 19:22:18 0° 184° (S) 2,567 10.3 -12.3°
Reaches altitude 10° 19:24:28 10° 192° (SSW) 1,680 9.4 -12.7°
Maximum altitude 19:27:52 38° 262° (W) 752 8.2 -13.4°
Drops below altitude 10° 19:31:14 10° 332° (NNW) 1,662 9.7 -14.0°
Sets 19:33:23 0° 340° (NNW) 2,536 10.5 -14.4°
